User: anonymous   Login
Location: Unspecified
(0.0000°N, 0.0000°E)
Time: 23:09:16
(UTC+00:00)
Language:

Transit 4B - Orbit

View from above orbital plane
View from above orbital plane
View from above satellite
View from above satellite

Ground track
Ground track

The orbit data is extracted from the following two-line orbital elements,

1 00202U 61031A   21023.61733829  .00000041  00000-0  24784-4 0  9996
2 00202  32.4368 150.2142 0101375   9.1855 351.0596 13.63545024951852
Epoch (UTC): 23 January 2021 14:48:58
Eccentricity: 0.0101375
inclination: 32.4368°
perigee height: 948 km
apogee height: 1098 km
right ascension of ascending node: 150.2142°
argument of perigee: 9.1855°
revolutions per day: 13.63545024
mean anomaly at epoch: 351.0596°
orbit number at epoch: 95185

The dashed part of the orbit path shows where the satellite is in the earth's shadow,  

DLR